Miscellaneous Local Product
Issued by NWS North Platte, NE

Home | Current Version | Previous Version | Graphics & Text | Print | Product List | Glossary On
Versions: 1 2 3 4 5 6 7 8 9 10 11 12 13 14 15 16 17 18 19 20 21 22 23 24 25 26 27 28 29 30 31 32 33 34 35 36 37 38 39 40 41 42 43 44 45 46 47 48 49 50
000
AXUS43 KLBF 181010
MISLBF


WESTERN AND NORTH CENTRAL NEBRASKA HOURLY WEATHER ROUNDUP
NATIONAL WEATHER SERVICE NORTH PLATTE NE
500 AM CDT THU SEP 18 2014

***STATIONS NOT REPORTING VARIABLES SUCH AS SKY/WEATHER OR
PRESSURE ARE PROVIDED BY THE NEBRASKA DEPARTMENT OF
ROADS...RAWS...AND APRS NETWORKS...AND ARE NOT UNDER
NATIONAL WEATHER SERVICE QUALITY CONTROL***

...OBSERVATIONS IN AND NEAR THE EASTERN PANHANDLE OF NEBRASKA...

CITY           SKY/WX    TMP DP  RH WIND       PRES   REMARKS
PINE RIDGE     CLEAR     56  54  93 W6        29.92S
CHADRON        CLEAR     49  47  93 SW5       29.91F
ALLIANCE       CLOUDY    62  61  96 S9        29.96S FOG
SIDNEY         FOG       57  56  96 S6        29.99F VSB 1
WHITECLAY        N/A     55  52  90 SE10        N/A
RUSHVILLE        N/A     52  51  95 SE6         N/A
CRESCENT LAKE    N/A     63  62  96 S7          N/A
LISCO            N/A     67  63  85 E7          N/A
BIG SPRINGS      N/A     64  62  95 S8          N/A
$$

...OBSERVATIONS IN NORTH CENTRAL NEBRASKA...

CITY           SKY/WX    TMP DP  RH WIND       PRES   REMARKS
VALENTINE      PTCLDY    60  59  96 S8        29.94S
THEDFORD       CLOUDY    58  57  98 S3        29.98S VSB 1/4
AINSWORTH      PTCLDY    59  58  97 S12       29.95S
O`NEILL        PTCLDY    61  60  96 SE5       29.96R
ORD            FOG       52  51  97 CALM      29.96F VSB 1/4
BROKEN BOW     FOG       60  59  96 CALM      29.97S VSB 1/4
SPRINGVIEW       N/A     61  58  88 NE3         N/A
ROSE             N/A     62  62  99 E8          N/A
NEWPORT          N/A     61  60  97 E5          N/A
COMSTOCK         N/A     62  61  99 SE3         N/A
CHAMBERS         N/A     61  60  96 S6G13       N/A
$$

...OBSERVATIONS IN SOUTHWEST NEBRASKA AND FAR NORTHEAST COLORADO...

CITY           SKY/WX    TMP DP  RH WIND       PRES   REMARKS
WRAY           FOG      N/A N/A N/A CALM      29.96F VSB 1/4
HOLYOKE        CLOUDY    64  63  94 SE8       29.97S FOG
IMPERIAL       FOG       65  64  97 SE6       29.96S VSB 1/2
OGALLALA       CLOUDY    63  62  97 E6        29.96S FOG
NORTH PLATTE   FOG       58  57  97 E7        29.96S VSB 1/4
MCCOOK         CLOUDY    63  62  97 E8        29.95R FOG
LEXINGTON      FOG       62  61  97 SE9       29.97S VSB 1/4
PAXTON           N/A     60  58  92 CALM        N/A
SUTHERLAND       N/A     62  60  93 SE5         N/A
BRADY            N/A     58  56  94 CALM        N/A
GOTHENBURG       N/A     58  55  90 CALM        N/A
CALLAWAY         N/A     60  59  97 SE6         N/A
$$

...SOME WEATHER OBSERVATIONS FROM AROUND THE REGION...

CITY           SKY/WX    TMP DP  RH WIND       PRES   REMARKS
DENVER         PTCLDY    60  42  51 SW12      30.04F
LARAMIE        CLEAR     44  36  73 S9        30.17F
CHEYENNE       CLEAR     54  40  59 W9        30.08F
SCOTTSBLUFF    CLEAR     53  52  96 E9        29.95F
RAPID CITY     CLEAR     53  50  89 SE5       29.90F
PIERRE         MOCLDY    52  48  86 E9        29.90F
WINNER         FAIR      60  55  83 SE9       29.92F
SIOUX FALLS    CLEAR     54  51  90 E5        29.98S
OMAHA          PTCLDY    60  57  89 SE7       29.99R
GRAND ISLAND   FOG       60  59  96 SE6       29.98R VSB 1/4
KANSAS CITY    FOG       61  61 100 E7        29.98F VSB 1/2
WICHITA        MOCLDY    72  67  84 E8        29.88R
HAYS           CLOUDY    66  63  88 E12       29.91F
LIBERAL        CLEAR     63  55  77 W10       29.94F
GOODLAND       FOG       63  63 100 CALM      29.96F VSB 1/4
$$



USA.gov is the U.S. government's official web portal to all federal, state and local government web resources and services.